{"data":{"norad_id":59163,"intl_designator":"2024-044M","name":"STARLINK-31278","alt_names":[],"object_type":"PAYLOAD","status":"ACTIVE","operator":null,"country":"US","launch_date":"2024-03-04","launch_site_code":"AFETR","launch_vehicle":null,"mission":null,"orbit_class":"UNKNOWN","rcs_meters":null,"size_class":null,"mass_kg":null,"dimensions":null,"purposes":["comms"],"wikipedia_slug":null,"has_3d_model":false,"image_url":null,"decayed_at":null,"tle_current":{"epoch":"2026-05-25T02:21:37.077984Z","epoch_age_seconds":70558,"freshness":"FRESH","line1":"1 59163U 24044M   26145.09834581  .00008420  00000+0  31541-3 0  9994","line2":"2 59163  43.0043  35.3088 0001245 234.7447 125.3288 15.27553425125253","mean_motion":15.27553425,"eccentricity":0.0001245,"inclination_deg":43.0043,"raan_deg":35.3088,"arg_perigee_deg":234.7447,"mean_anomaly_deg":125.3288,"bstar":0.00031541,"rev_number":12525,"period_min":94.268388681725,"perigee_km":482.2744447274,"apogee_km":483.98289987981,"semimajor_km":6861.2656723036,"source":"CELESTRAK","updated_at":"2026-05-25T13:38:18.834708Z"}}}